Weather History for Key West, FL

Change the Weather History Date:

Friday, October 4, 2013

  Actual Average Record
Temperature  
Mean Temperature 85 °F 82 °F  
Max Temperature 88 °F 86 °F 91 °F (1962)
Min Temperature 82 °F 78 °F 70 °F (1929)
Degree Days  
Heating Degree Days 0 0  
Month to date heating degree days 0 0  
Since 1 July heating degree days 0 0  
Cooling Degree Days 20 17  
Month to date cooling degree days 72 68  
Year to date cooling degree days 3934 3803  
Growing Degree Days 34 (Base 50)    
Moisture  
Dew Point 75 °F    
Average Humidity 74    
Maximum Humidity 79    
Minimum Humidity 68    
Precipitation  
Precipitation 0.00 in 0.19 in 13.54 in (1933)
Month to date precipitation 0.92 0.75  
Year to date precipitation 41.23 31.13  
Snow  
Snow 0.00 in - - ()
Month to date snowfall 0.0  
Since 1 July snowfall 0.0  
Since 1 September snowfall 0.0  
Snow Depth 0.00 in    
Sea Level Pressure  
Sea Level Pressure 30.00 in    
Wind  
Wind Speed 10 mph (East)    
Max Wind Speed 14 mph    
Max Gust Speed 18 mph    
Visibility 10 miles    
Events      
T = Trace of Precipitation, MM = Missing Value Source: NWS Daily Summary

Daily Weather History Graph

Daily Weather History Graph

Search for Another Location

Airport:

Trip Planner

Search our weather history database for the weather conditions in past years. The results will help you decide how hot, cold, wet, or windy it might be!

Date:

Astronomy

Oct. 04, 2013 Rise Set
Actual Time 7:20 AM EDT 7:10 PM EDT
Civil Twilight 6:57 AM EDT 7:33 PM EDT
Nautical Twilight 6:31 AM EDT 7:59 PM EDT
Astronomical Twilight 6:04 AM EDT 8:26 PM EDT
Moon 6:53 AM EDT (10/4) 6:56 PM EDT (10/4)
Length of Visible Light 12h 35m
Length of Day
11h 50m
Waning Crescent, 0% of the Moon is Illuminated
Oct 4
Waning Crescent
Oct 4
New
Oct 11
First Quarter
Oct 18
Full
Oct 26
Last Quarter

Hourly Weather History & Observations

Time (EDT) Temp. Heat Index Dew Point Humidity Pressure Visibility Wind Dir Wind Speed Gust Speed Precip Events Conditions
12:53 AM 82.0 °F 89.4 °F 75.9 °F 82% 30.02 in 10.0 mi East 9.2 mph - N/A   Scattered Clouds
1:53 AM 82.0 °F 88.6 °F 75.0 °F 79% 30.00 in 10.0 mi East 6.9 mph - N/A   Clear
2:53 AM 82.0 °F 88.6 °F 75.0 °F 79% 30.00 in 10.0 mi East 8.1 mph - N/A   Partly Cloudy
3:53 AM 82.0 °F 88.6 °F 75.0 °F 79% 29.99 in 10.0 mi ESE 10.4 mph - N/A   Partly Cloudy
4:53 AM 82.0 °F 88.6 °F 75.0 °F 79% 29.97 in 10.0 mi East 9.2 mph - N/A   Clear
5:53 AM 82.0 °F 88.6 °F 75.0 °F 79% 29.98 in 10.0 mi East 8.1 mph - N/A   Clear
6:53 AM 82.0 °F 88.6 °F 75.0 °F 79% 29.99 in 10.0 mi East 6.9 mph - N/A   Clear
7:53 AM 82.0 °F 89.4 °F 75.9 °F 82% 30.00 in 10.0 mi East 10.4 mph - N/A   Partly Cloudy
8:53 AM 84.0 °F 91.9 °F 75.0 °F 74% 30.02 in 10.0 mi East 11.5 mph - N/A   Partly Cloudy
9:53 AM 84.0 °F 92.6 °F 75.9 °F 76% 30.03 in 10.0 mi East 10.4 mph - N/A   Scattered Clouds
10:53 AM 84.9 °F 94.1 °F 75.9 °F 74% 30.04 in 10.0 mi East 10.4 mph - N/A   Scattered Clouds
11:53 AM 86.0 °F 96.9 °F 77.0 °F 74% 30.04 in 10.0 mi ESE 12.7 mph - N/A   Scattered Clouds
12:53 PM 87.1 °F 97.3 °F 75.9 °F 69% 30.03 in 10.0 mi East 10.4 mph - N/A   Clear
1:53 PM 88.0 °F 100.2 °F 77.0 °F 70% 30.00 in 10.0 mi East 12.7 mph - N/A   Scattered Clouds
2:53 PM 87.1 °F 97.3 °F 75.9 °F 69% 29.99 in 10.0 mi ESE 11.5 mph - N/A   Clear
3:44 PM 84.2 °F 92.3 °F 75.2 °F 74% 29.98 in 10.0 mi East 12.7 mph - N/A   Mostly Cloudy
3:53 PM 84.9 °F 94.1 °F 75.9 °F 74% 29.98 in 10.0 mi East 12.7 mph - N/A   Mostly Cloudy
4:03 PM 84.2 °F 92.3 °F 75.2 °F 74% 29.98 in 10.0 mi East 12.7 mph - N/A   Mostly Cloudy
4:15 PM 84.2 °F 92.3 °F 75.2 °F 74% 29.97 in 10.0 mi East 10.4 mph - N/A   Mostly Cloudy
4:53 PM 84.0 °F 91.9 °F 75.0 °F 74% 29.97 in 10.0 mi East 12.7 mph - N/A   Partly Cloudy
5:53 PM 84.0 °F 91.9 °F 75.0 °F 74% 29.97 in 10.0 mi East 8.1 mph - N/A   Clear
6:53 PM 82.9 °F 90.2 °F 75.0 °F 77% 29.99 in 10.0 mi East 6.9 mph - N/A   Partly Cloudy
7:53 PM 82.9 °F 89.4 °F 73.9 °F 74% 30.00 in 10.0 mi East 9.2 mph - N/A   Clear
8:53 PM 82.9 °F 90.2 °F 75.0 °F 77% 30.01 in 10.0 mi East 9.2 mph - N/A   Clear
9:53 PM 82.9 °F 90.2 °F 75.0 °F 77% 30.03 in 10.0 mi East 11.5 mph - N/A   Clear
10:53 PM 82.0 °F 88.6 °F 75.0 °F 79% 30.03 in 10.0 mi East 8.1 mph - N/A   Clear
11:53 PM 82.0 °F 88.6 °F 75.0 °F 79% 30.02 in 10.0 mi East 9.2 mph - N/A   Clear